This is the latest recevied weather packets stored in our database for station/object HB9FHL-13. If no packets are shown the sender has not sent any weather packets the latest 10 day(s).
| Time | Temp. | Humidity | Pressure | Rain* | Wind** | Luminosity | Snow |
|---|---|---|---|---|---|---|---|
| 1788468827 | 21.11° C | - | 1025 hPa | 0 mm | - | - | - |
| 1788468526 | 21.67° C | - | 1026 hPa | 0 mm | - | - | - |
| 1788468226 | 22.22° C | - | 1027.5 hPa | 0 mm | - | - | - |
| 1788467925 | 21.67° C | - | 1024.3 hPa | 0 mm | - | - | - |
| 1788467657 | 22.22° C | - | 1022.1 hPa | 0 mm | - | - | - |
| 1788467625 | 22.22° C | - | 1022.1 hPa | 0 mm | - | - | - |
| 1788467324 | 21.67° C | - | 1028 hPa | 0 mm | - | - | - |
| 1788467024 | 21.67° C | - | 1024.6 hPa | 0 mm | - | - | - |
| 1788466723 | 22.22° C | - | 1025.1 hPa | 0 mm | - | - | - |
| 1788466423 | 21.67° C | - | 1027.1 hPa | 0 mm | - | - | - |
| 1788466153 | 22.22° C | - | 1025.3 hPa | 0 mm | - | - | - |
| 1788466122 | 22.22° C | - | 1025.3 hPa | 0 mm | - | - | - |
| 1788465822 | 21.67° C | - | 1027.2 hPa | 0 mm | - | - | - |
| 1788465522 | 21.67° C | - | 1025.7 hPa | 0 mm | - | - | - |
| 1788465259 | 22.22° C | - | 1027.6 hPa | 0 mm | - | - | - |
| 1788465221 | 22.22° C | - | 1027.6 hPa | 0 mm | - | - | - |
| 1788464921 | 22.22° C | - | 1024.6 hPa | 0 mm | - | - | - |
| 1788464620 | 22.22° C | - | 1023.2 hPa | 0 mm | - | - | - |
| 1788464376 | 21.11° C | - | 1025.1 hPa | 0 mm | - | - | - |
| 1788464320 | 21.11° C | - | 1025.1 hPa | 0 mm | - | - | - |
| 1788464019 | 22.22° C | - | 1026.5 hPa | 0 mm | - | - | - |
| 1788463719 | 21.67° C | - | 1021.1 hPa | 0 mm | - | - | - |
| 1788463418 | 22.22° C | - | 1028.5 hPa | 0 mm | - | - | - |
| 1788463118 | 22.22° C | - | 1023.5 hPa | 0 mm | - | - | - |
| 1788462817 | 22.22° C | - | 1027.5 hPa | 0 mm | - | - | - |
* Rain since midnight (hover to see other rain measurements)
** Current wind speed in m/s (hover to see current wind gust speed)